Regional Weather Roundup
Issued by NWS San Angelo, TX

Home | Current Version | Previous Version | Text Only | Print | Product List | Glossary On
Versions: 1 2 3 4 5 6 7 8 9 10 11 12 13 14 15 16 17 18 19 20 21 22 23 24 25 26 27 28 29 30 31 32 33 34 35 36 37 38 39 40 41 42 43 44 45 46 47 48 49 50
000
ASUS44 KSJT 282010
RWRSJT
WEST CENTRAL TEXAS REGIONAL WEATHER ROUNDUP
NATIONAL WEATHER SERVICE SAN ANGELO TX
300 PM CDT FRI AUG 28 2015

NOTE: "FAIR" INDICATES FEW OR NO CLOUDS BELOW 12,000 FEET WITH NO
SIGNIFICANT WEATHER AND/OR OBSTRUCTIONS TO VISIBILITY.

TXZ049-054-064>066-071>073-076>078-098-099-113-114-127-128-139-140-
154-155-168>170-282100
...LOCATIONS ACROSS WEST CENTRAL TEXAS...

CITY           SKY/WX    TMP DP  RH WIND       PRES   REMARKS
SAN ANGELO     SUNNY     98  49  18 S8        29.97F
ABILENE        MOSUNNY   97  53  22 S12       29.98F
DYESS AFB      PTSUNNY   98  53  22 S14       29.96F
JUNCTION       SUNNY     95  51  22 S7        29.99F
SWEETWATER     SUNNY     98  40  13 S13G20    30.01F
BROWNWOOD      NOT AVBL
COLEMAN        CLEAR     97  58  27 S12       29.99F
SONORA         SUNNY     95  50  21 S10       30.04F
OZONA          FAIR      95  43  16 S15G21    30.03F
BRADY          SUNNY     99  54  22 CALM      29.98F
$$

TEXAS PANHANDLE/OKLAHOMA PANHANDLE

CITY           SKY/WX    TMP DP  RH WIND       PRES   REMARKS
AMARILLO       SUNNY     87  61  41 N12       30.07F
BORGER         SUNNY     90  61  37 NE9G18    30.03F
CANADIAN       SUNNY     93  63  36 N5        29.97F
DALHART        SUNNY     90  58  33 NE13G22   30.11F
DUMAS          CLEAR     87  59  39 NE12G21   30.08F
GUYMON         NOT AVBL
HEREFORD       CLEAR     90  60  36 NE13G18   30.07F
PAMPA          CLEAR     89  61  39 NE10      30.05F
PERRYTON       SUNNY     92  53  26 N10G18    30.03S
$$

SOUTHERN PANHANDLE/SOUTH PLAINS/ROLLING PLAINS

CITY           SKY/WX    TMP DP  RH WIND       PRES   REMARKS
LUBBOCK        PTSUNNY   93  55  27 SW12G21   30.02F
SNYDER         SUNNY     96  46  18 S12       29.99F
CHILDRESS      PTSUNNY   96  59  29 VRB3      29.95F
SEMINOLE       CLEAR     97  50  20 SW3       30.01F
$$

PERMIAN BASIN

CITY           SKY/WX    TMP DP  RH WIND       PRES   REMARKS
MIDLAND        SUNNY     98  51  20 S13       29.99F
ODESSA         SUNNY     98  50  19 S12G17    30.00F
WINK           SUNNY     99  51  19 S6        29.95F
$$

FAR WEST/SOUTHWEST MOUNTAINS/TRANS PECOS

CITY           SKY/WX    TMP DP  RH WIND       PRES   REMARKS
ALPINE         CLEAR     93  46  19 W7        30.15F
DRYDEN           N/A     98  48  18 S10       29.97F
EL PASO        PTSUNNY   94  53  25 VRB5      30.04F
FORT STOCKTON  SUNNY     98  50  19 VRB3      29.98F
GUADALUPE PASS MOSUNNY   90  51  26 VRB7      30.19F
MARFA          SUNNY     90  48  24 E6        30.15F
PECOS          CLEAR     99  52  20 NE9       29.95F
$$

DALLAS/FORT WORTH METROPLEX

CITY           SKY/WX    TMP DP  RH WIND       PRES   REMARKS
DFW AIRPORT    MOSUNNY   95  60  31 SE12      29.95F
FTW MEACHAM    SUNNY     97  62  31 E10G18    29.94F
DAL-EXECUTIVE  SUNNY     95  60  31 CALM      29.95F
GRAND PRAIRIE  SUNNY     93  63  36 E3        29.97F
ADDISON        SUNNY     93  59  31 SE5       29.96F
MESQUITE       CLEAR     88  59  37 SE6       29.97F
LANCASTER      CLEAR     94  59  30 SE8       29.97F
$$

NORTH CENTRAL TEXAS

CITY           SKY/WX    TMP DP  RH WIND       PRES   REMARKS
SHRMAN/DENISON PTCLDY    96  64  35 S7        29.97F
GAINESVILLE    PTSUNNY   91  62  39 SE10G16   29.97F
BRIDGEPORT     PTCLDY    95  64  36 SE9       29.96F
DENTON         MOSUNNY   94  62  34 SE8       29.94F
WAXAHACHIE     CLEAR     94  63  35 S6        29.98F
GRANBURY       CLEAR     95  60  31 SE3       29.96F
$$

WESTERN NORTH TEXAS

CITY           SKY/WX    TMP DP  RH WIND       PRES   REMARKS
WICHITA FALLS  PTSUNNY   94  62  34 SW12      29.92F
VERNON         MOCLDY    94  50  22 CALM      29.94F
BRECKENRIDGE   CLEAR     98  58  26 S9        29.94F HAZE
COMANCHE       SUNNY     97  59  28 S3        29.97F
$$

CENTRAL AND SOUTH CENTRAL TEXAS

CITY           SKY/WX    TMP DP  RH WIND       PRES   REMARKS
AUSTIN/BERGSTM SUNNY     94  58  29 SE8       29.96F
WACO           SUNNY     95  60  31 S9        29.96F
HILLSBORO      CLEAR     94  58  29 SE7       29.96F
TEMPLE         SUNNY     93  61  33 SE7       29.97F
KILLEEN-GRAY   SUNNY     95  58  29 SE10      29.96F
FORT HOOD      SUNNY     94  60  32 SE8       29.95F
GEORGETOWN     SUNNY     93  57  29 S6        29.98F
LAGO VISTA     FAIR      95  55  25 S5        30.00F
SAN MARCOS     SUNNY     93  59  31 S6        29.98F
NEW BRAUNFELS  SUNNY     96  60  30 S8        29.96F
RANDOLPH AFB   SUNNY     92  58  32 S7G15     29.97F
SAN ANTONIO    MOSUNNY   93  58  30 CALM      29.98F
STINSON        SUNNY     95  58  28 MISG      29.95F
PLEASANTON     NOT AVBL
LA GRANGE      SUNNY     94  63  35 CALM      29.95F
GIDDINGS       CLEAR     92  58  32 CALM      30.00F
$$

EAST TEXAS

CITY           SKY/WX    TMP DP  RH WIND       PRES   REMARKS
PARIS          SUNNY     90  61  37 S6        29.99F
CLARKSVILLE    NOT AVBL
TYLER          SUNNY     92  63  38 NE9       29.99F
LONGVIEW       SUNNY     89  62  40 MISG      29.99F
PALESTINE      CLEAR     91  64  39 N7        29.99F
NACOGDOCHES    SUNNY     91  61  35 SE7       29.98F
$$

TEXAS HILL COUNTRY AND EDWARDS PLATEAU

CITY           SKY/WX    TMP DP  RH WIND       PRES   REMARKS
LLANO            N/A    N/A N/A N/A MISG        N/A
HORSESHOE BAY  FAIR      97  55  24 SE3       29.97F
KERRVILLE      SUNNY     92  55  28 E8G16     30.01F
FREDERICKSBRG  SUNNY     93  51  23 SE6       30.00F
ROCKSPRINGS    CLEAR     91  55  29 S10       30.06F
HONDO          SUNNY     94  56  27 S8        29.99F
UVALDE         CLEAR     94  56  28 SE9       29.97F
DEL RIO        SUNNY     95  53  24 SE13G18   29.93F
$$

SOUTHEAST TEXAS

CITY           SKY/WX    TMP DP  RH WIND       PRES   REMARKS
COLLEGE STN    SUNNY     91  62  37 VRB3      29.97F
CALDWELL       CLEAR     91  57  31 E5        30.00F
CROCKETT       CLEAR     93  61  33 NE5       30.00F
BRENHAM        SUNNY     91  64  40 SE6       29.98F
HUNTSVILLE     SUNNY     94  62  34 CALM      29.97F
CONROE         SUNNY     91  60  35 CALM      29.98F
HOUSTON BUSH   MOSUNNY   89  67  47 CALM      29.98F
HOUSTON HOBBY  MOSUNNY   88  65  46 CALM      29.97F
PERLAND        MOSUNNY   89  64  43 CALM      29.99F
WHARTON        PTCLDY    91  66  43 SE7       29.98F
$$

THE UPPER TEXAS COAST

CITY           SKY/WX    TMP DP  RH WIND       PRES   REMARKS
ORANGE         PTCLDY    88  60  38 CALM      29.99F
PORT ARTHUR    MOSUNNY   89  66  46 SE6       29.97F
GALVESTON      SUNNY     88  70  55 SE9       30.00F
ANGLETON       MOSUNNY   90  67  46 VRB5      29.98F
BAY CITY       PTCLDY    90  67  47 NE5       29.98F
$$

TEXAS COASTAL BEND, RIO GRANDE PLAINS DEEP SOUTH TEXAS

CITY           SKY/WX    TMP DP  RH WIND       PRES   REMARKS
VICTORIA       SUNNY     92  66  42 VRB7      29.97F
BEEVILLE       FAIR      92  65  40 E5        29.97F
ROCKPORT       SUNNY     91  65  41 SE12      29.97F
PORT ARANSAS   CLEAR     87  65  47 E10       29.98F
PORT LAVACA    CLEAR     89  68  49 E10       29.98F
CORPUS CHRISTI MOSUNNY   92  62  36 E9G20     29.97F
KINGSVILLE NAS MOSUNNY   95  67  39 SE12      29.96F
COTULLA        SUNNY     96  55  25 SE13      29.96F
LAREDO         SUNNY     97  53  22 NE7       29.96F
BROWNSVILLE    PTSUNNY   87  69  54 E15G22    29.96F
PORT ISABEL    SUNNY     91  68  46 E14G21    29.96F
HEBBRONVILLE   NOT AVBL
MCALLEN        MOSUNNY   94  67  41 E8        29.95F
WESLACO        MOSUNNY   91  67  45 E6        29.95F
FALFURRIAS     PTCLDY    95  62  32 SE3       29.94F
EDINBURG       PTCLDY    93  63  36 E6        29.95F
$$


USA.gov is the U.S. government's official web portal to all federal, state and local government web resources and services.